This demonstration page uses our WeatherBlox Daily Observations layout. Learn more.

41.55636, -103.73856

Hourly Observations for April 23, 2019

Temp ( °F °C ) Dew Point ( °F °C ) Humidity (%) Winds ( mph kmh ) Pressure ( in mb ) Visibility ( mi km ) Precip ( " mm )
12:53 am 00:53 Clear 38 3.3 34 1.1 86 86 Calm 30.21 1023 10 16.09344 0 0
1:53 am 01:53 Clear 37 2.8 34 1.1 89 89 ENE 5 7 30.18 1022 10 16.09344 0 0
2:53 am 02:53 Clear 36 2.2 34 1.1 93 93 E 5 7 30.18 1022 10 16.09344 0 0
3:53 am 03:53 Clear 34 1.1 32 0 92 92 Calm 30.18 1022 10 16.09344 0 0
4:53 am 04:53 Clear 34 1.1 32 0 92 92 Calm 30.15 1021 10 16.09344 0 0
5:53 am 05:53 Clear 34 1.1 32 0 92 92 ESE 8 13 30.15 1021 10 16.09344 0 0
6:53 am 06:53 Mostly Sunny 36 2.2 35 1.7 97 97 E 6 9 30.15 1021 10 16.09344 0 0
7:53 am 07:53 Mostly Cloudy 40 4.4 37 2.8 89 89 ESE 6 9 30.15 1021 10 16.09344 0 0
8:53 am 08:53 Mostly Sunny 48 8.9 40 4.4 74 74 SE 7 11 30.09 1019 10 16.09344 0 0
9:53 am 09:53 Sunny 55 12.8 43 6.1 64 64 SSE 14 22 30.06 1018 10 16.09344 0 0
10:53 am 10:53 Partly Cloudy 60 15.6 43 6.1 53 53 S 12 19 30.06 1018 10 16.09344 0 0
11:53 am 11:53 Sunny 64 17.8 43 6.1 46 46 S 13 20 30.03 1017 10 16.09344 0 0
12:53 pm 12:53 Sunny 66 18.9 44 6.7 45 45 S 15 24 29.97 1015 10 16.09344 0 0
1:53 pm 13:53 Sunny 68 20 44 6.7 42 42 SSW 8 13 29.94 1014 10 16.09344 0 0
2:53 pm 14:53 Sunny 69 20.6 43 6.1 39 39 VRB 3 6 29.91 1013 10 16.09344 0 0
3:53 pm 15:53 Mostly Sunny 72 22.2 44 6.7 37 37 Calm 29.88 1012 10 16.09344 0 0
4:53 pm 16:53 Sunny 72 22.2 39 3.9 30 30 NW 7 11 29.88 1012 10 16.09344 0 0
5:53 pm 17:53 Sunny 70 21.1 40 4.4 34 34 WSW 5 7 29.88 1012 10 16.09344 0 0
6:53 pm 18:53 Sunny 68 20 41 5 38 38 WNW 3 6 29.85 1011 10 16.09344 0 0
7:53 pm 19:53 Clear 62 16.7 39 3.9 43 43 Calm 29.85 1011 10 16.09344 0 0
8:53 pm 20:53 Clear 54 12.2 41 5 62 62 Calm 29.88 1012 10 16.09344 0 0
9:53 pm 21:53 Clear 50 10 42 5.6 74 74 ENE 7 11 29.88 1012 10 16.09344 0 0
10:53 pm 22:53 Clear 48 8.9 42 5.6 80 80 ENE 6 9 29.85 1011 10 16.09344 0 0
11:53 pm 23:53 Clear 47 8.3 42 5.6 83 83 E 8 13 29.85 1011 10 16.09344 0 0

Powered by AerisWeather